Voltar ao catálogo

ELEVATION-1

AtivoCiênciaSSO
NORAD 62677·PAYLOAD·🇬🇧 United Kingdom

Lançado Jan 14, 2025 de Vandenberg Space Force Base

Loading…

Próximas Passagens (próximas 24 horas)

TLE

AtualizadoSource: Space-Track

Época: Sep 14, 2026, 11:33 UTC

1 62677U 25009BW  26257.48163781  .00025633  00000-0  51844-3 0  9998
2 62677  97.3753 344.0217 0002814   8.8427 351.2871 15.46437972150606

Acompanhe ELEVATION-1 em tempo real com AllMySat

Download on the App Store